Location: ??????
(42.0089°N, 44.3281°E)
Time: 17:41:00
(UTC+00:00)

USA 267 - Pass Details

Date: 01 June 2022
Orbit: 1101 x 1106 km, 123.0° (Epoch: 28 June)

Event Time Altitude Azimuth Distance (km) Brightness Sun altitude
Rises 21:30:21 0° 116° (ESE) 3,909 6.0 -25.5°
Reaches altitude 10° 21:32:51 10° 113° (ESE) 2,954 5.4 -25.4°
Maximum altitude 21:39:15 61° 35° (NE) 1,235 3.7 -25.2°
Drops below altitude 10° 21:45:40 10° 317° (NW) 2,965 5.9 -25.0°
Sets 21:48:11 0° 314° (NW) 3,925 6.6 -24.9°
